| time (UTC) | temp F | wind direction | speed knots | gust knots | rain 1hr in | rain 24hr in | rain mn in | humidity % | barometer mb |
| 20260506015328 | 49 | 37 | 5.2 | 13.0 | 0.00 | 0.00 | 0.00 | 83 | 1008.0 |
| 20260506013829 | 49 | 11 | 5.2 | 13.0 | 0.00 | 0.00 | 0.00 | 83 | 1007.7 |
| 20260506012329 | 49 | 23 | 4.3 | 9.6 | 0.00 | 0.00 | 0.00 | 83 | 1007.5 |
| 20260506010828 | 50 | 63 | 4.3 | 11.3 | 0.00 | 0.00 | 0.00 | 81 | 1007.4 |
| 20260506005329 | 50 | 70 | 6.1 | 15.6 | 0.00 | 0.00 | 0.00 | 80 | 1007.2 |
| 20260506003830 | 50 | 46 | 4.3 | 10.4 | 0.00 | 0.00 | 0.00 | 80 | 1006.7 |
| 20260506002329 | 50 | 18 | 6.1 | 13.0 | 0.00 | 0.00 | 0.00 | 79 | 1006.4 |
| 20260506000830 | 50 | 70 | 5.2 | 11.3 | 0.00 | 0.00 | 0.00 | 78 | 1006.3 |
| 20260505235328 | 51 | 13 | 5.2 | 11.3 | 0.00 | 0.00 | 0.00 | 78 | 1006.3 |
| 20260505233829 | 51 | 1 | 5.2 | 11.3 | 0.00 | 0.00 | 0.00 | 78 | 1005.9 |
| 20260505232329 | 51 | 59 | 5.2 | 13.9 | 0.00 | 0.00 | 0.00 | 78 | 1005.9 |
| 20260505231523 | 51 | 27 | 6.1 | 13.9 | 0.00 | 0.00 | 0.00 | 78 | 1006.4 |
| 20260505225329 | 52 | 60 | 5.2 | 12.2 | 0.00 | 0.00 | 0.00 | 78 | 1006.2 |
| 20260505223829 | 52 | 22 | 5.2 | 13.9 | 0.00 | 0.00 | 0.00 | 77 | 1005.9 |
| 20260505222328 | 52 | 15 | 5.2 | 10.4 | 0.00 | 0.00 | 0.00 | 77 | 1005.9 |
| 20260505220829 | 53 | 71 | 7.0 | 13.0 | 0.00 | 0.00 | 0.00 | 76 | 1005.6 |
| 20260505215329 | 53 | 76 | 7.0 | 14.8 | 0.00 | 0.00 | 0.00 | 77 | 1005.5 |
| 20260505213829 | 53 | 10 | 5.2 | 13.0 | 0.00 | 0.00 | 0.00 | 78 | 1005.2 |
| 20260505212329 | 53 | 34 | 6.1 | 15.6 | 0.00 | 0.00 | 0.00 | 78 | 1005.4 |
| 20260505210828 | 54 | 352 | 7.0 | 14.8 | 0.00 | 0.00 | 0.00 | 77 | 1004.9 |
| 20260505205330 | 54 | 36 | 7.0 | 14.8 | 0.00 | 0.00 | 0.00 | 77 | 1004.0 |
| 20260505203829 | 54 | 22 | 6.1 | 14.8 | 0.00 | 0.00 | 0.00 | 80 | 1004.4 |
| 20260505203018 | 53 | 49 | 5.2 | 12.2 | 0.00 | 0.00 | 0.00 | 80 | 1004.7 |
| 20260505200829 | 53 | 39 | 6.1 | 14.8 | 0.00 | 0.00 | 0.00 | 81 | 1004.9 |
| 20260505195329 | 53 | 25 | 7.0 | 14.8 | 0.00 | 0.00 | 0.00 | 82 | 1004.2 |
| 20260505193829 | 54 | 86 | 7.0 | 14.8 | 0.00 | 0.00 | 0.00 | 83 | 1004.2 |
| 20260505192328 | 54 | 70 | 6.1 | 17.4 | 0.00 | 0.00 | 0.00 | 82 | 1004.3 |
| 20260505190828 | 55 | 15 | 6.1 | 14.8 | 0.00 | 0.00 | 0.00 | 81 | 1004.3 |
| 20260505190024 | 56 | 33 | 6.1 | 16.5 | 0.00 | 0.00 | 0.00 | 79 | 1003.7 |
| 20260505183829 | 56 | 56 | 7.0 | 19.1 | 0.00 | 0.00 | 0.00 | 81 | 1004.1 |
| 20260505183023 | 56 | 11 | 5.2 | 14.8 | 0.00 | 0.00 | 0.00 | 81 | 1004.1 |
| 20260505180829 | 56 | 0 | 6.1 | 13.9 | 0.00 | 0.00 | 0.00 | 81 | 1003.5 |
| 20260505175329 | 56 | 15 | 4.3 | 13.0 | 0.00 | 0.00 | 0.00 | 83 | 1003.3 |
| 20260505173828 | 56 | 8 | 6.1 | 13.0 | 0.00 | 0.00 | 0.00 | 83 | 1003.0 |
| 20260505172329 | 56 | 40 | 7.0 | 14.8 | 0.00 | 0.00 | 0.00 | 84 | 1003.1 |
| 20260505170829 | 56 | 34 | 7.0 | 17.4 | 0.00 | 0.00 | 0.00 | 84 | 1002.9 |
| 20260505170026 | 57 | 41 | 7.0 | 15.6 | 0.00 | 0.00 | 0.00 | 84 | 1002.6 |
| 20260505163829 | 58 | 27 | 5.2 | 14.8 | 0.00 | 0.00 | 0.00 | 84 | 1002.4 |
| 20260505162329 | 59 | 13 | 4.3 | 15.6 | 0.00 | 0.00 | 0.00 | 83 | 1002.1 |
| 20260505160829 | 60 | 40 | 4.3 | 16.5 | 0.00 | 0.00 | 0.00 | 83 | 1001.6 |
| 20260505152329 | 67 | 75 | 5.2 | 15.6 | 0.00 | 0.00 | 0.00 | 75 | 1000.8 |
| 20260505150829 | 70 | 23 | 3.5 | 8.7 | 0.00 | 0.00 | 0.00 | 80 | 1000.6 |
| 20260505123829 | 69 | 335 | 2.6 | 9.6 | 0.00 | 0.00 | 0.00 | 80 | 999.2 |
| 20260505122328 | 69 | 268 | 4.3 | 8.7 | 0.00 | 0.00 | 0.00 | 80 | 998.5 |
| 20260505120829 | 69 | 226 | 3.5 | 8.7 | 0.00 | 0.00 | 0.00 | 79 | 998.3 |
| 20260505115329 | 69 | 224 | 6.1 | 13.0 | 0.00 | 0.00 | 0.00 | 79 | 998.0 |
| 20260505113829 | 69 | 221 | 7.0 | 13.9 | 0.00 | 0.00 | 0.00 | 78 | 997.7 |
| 20260505112329 | 69 | 225 | 6.1 | 10.4 | 0.00 | 0.00 | 0.00 | 78 | 997.4 |
| 20260505110828 | 70 | 212 | 6.1 | 13.0 | 0.00 | 0.00 | 0.00 | 77 | 997.4 |
| 20260505102115 | 71 | 228 | 6.1 | 11.3 | 0.00 | 0.00 | 0.00 | 77 | 997.2 |
| 20260505100939 | 71 | 262 | 6.1 | 15.6 | 0.00 | 0.00 | 0.00 | 77 | 997.4 |
| 20260505093828 | 71 | 200 | 6.1 | 13.0 | 0.00 | 0.00 | 0.00 | 77 | 997.1 |
| 20260505092328 | 71 | 205 | 6.1 | 13.0 | 0.00 | 0.00 | 0.00 | 77 | 997.3 |
| 20260505091521 | 71 | 211 | 6.1 | 12.2 | 0.00 | 0.00 | 0.00 | 76 | 997.4 |
| 20260505090025 | 71 | 186 | 7.0 | 14.8 | 0.00 | 0.00 | 0.00 | 76 | 997.6 |
| 20260505083829 | 71 | 229 | 6.1 | 14.8 | 0.00 | 0.00 | 0.00 | 77 | 997.6 |
| 20260505082330 | 71 | 208 | 5.2 | 13.0 | 0.00 | 0.00 | 0.00 | 77 | 997.7 |
| 20260505080828 | 71 | 238 | 6.1 | 15.6 | 0.00 | 0.00 | 0.00 | 76 | 997.9 |
| 20260505075330 | 71 | 224 | 5.2 | 13.9 | 0.00 | 0.00 | 0.00 | 76 | 998.0 |
| 20260505073828 | 71 | 215 | 5.2 | 13.0 | 0.00 | 0.00 | 0.00 | 77 | 998.2 |
| 20260505072330 | 71 | 222 | 5.2 | 14.8 | 0.00 | 0.00 | 0.00 | 77 | 998.2 |
| 20260505071519 | 71 | 217 | 5.2 | 10.4 | 0.00 | 0.00 | 0.00 | 77 | 998.5 |
| 20260505065330 | 71 | 214 | 5.2 | 12.2 | 0.00 | 0.00 | 0.00 | 77 | 998.8 |
| 20260505063828 | 71 | 188 | 5.2 | 15.6 | 0.00 | 0.00 | 0.00 | 76 | 998.8 |
| 20260505062330 | 71 | 224 | 6.1 | 14.8 | 0.00 | 0.00 | 0.00 | 75 | 998.9 |
| 20260505060828 | 72 | 176 | 6.1 | 11.3 | 0.00 | 0.00 | 0.00 | 75 | 999.1 |
| 20260505055330 | 72 | 193 | 5.2 | 12.2 | 0.00 | 0.00 | 0.00 | 75 | 999.2 |
| 20260505053828 | 72 | 210 | 4.3 | 13.9 | 0.00 | 0.00 | 0.00 | 75 | 999.3 |
| 20260505052329 | 72 | 197 | 4.3 | 13.9 | 0.00 | 0.00 | 0.00 | 74 | 999.5 |
| 20260505051518 | 72 | 244 | 4.3 | 10.4 | 0.00 | 0.00 | 0.00 | 74 | 999.6 |
| 20260505040828 | 73 | 180 | 4.3 | 13.9 | 0.00 | 0.00 | 0.00 | 73 | 1000.0 |
| 20260505040032 | 73 | 147 | 5.2 | 11.3 | 0.00 | 0.00 | 0.00 | 73 | 1000.1 |
| 20260505033829 | 73 | 210 | 3.5 | 7.8 | 0.00 | 0.00 | 0.00 | 72 | 1000.0 |
| 20260505032329 | 73 | 190 | 3.5 | 10.4 | 0.00 | 0.00 | 0.00 | 71 | 1000.0 |
| 20260505031526 | 74 | 181 | 4.3 | 12.2 | 0.00 | 0.00 | 0.00 | 70 | 1000.0 |
| 20260505025328 | 74 | 178 | 5.2 | 13.0 | 0.00 | 0.00 | 0.00 | 69 | 1000.0 |
| 20260505023829 | 74 | 215 | 4.3 | 10.4 | 0.00 | 0.00 | 0.00 | 69 | 1000.0 |
| 20260505022329 | 75 | 212 | 3.5 | 9.6 | 0.00 | 0.00 | 0.00 | 68 | 999.9 |
| 20260505020828 | 75 | 187 | 3.5 | 9.6 | 0.00 | 0.00 | 0.00 | 67 | 999.7 |